TimeEST,TemperatureF,Dew PointF,Humidity,Sea Level PressureIn,VisibilityMPH,Wind Direction,Wind SpeedMPH,Gust SpeedMPH,PrecipitationIn,Events,Conditions,WindDirDegrees,DateUTC
12:15 AM,59.0,51.8,77,30.05,10.0,SSW,11.5,19.6,N/A,,Scattered Clouds,200,2012-12-04 05:15:00
12:35 AM,59.0,51.8,77,30.05,10.0,SSW,12.7,21.9,N/A,,Scattered Clouds,200,2012-12-04 05:35:00
12:55 AM,59.0,51.8,77,30.05,10.0,SSW,11.5,18.4,N/A,,Mostly Cloudy,200,2012-12-04 05:55:00
1:15 AM,59.0,51.8,77,30.04,10.0,SSW,10.4,18.4,N/A,,Overcast,200,2012-12-04 06:15:00
1:35 AM,59.0,51.8,77,30.04,10.0,South,10.4,17.3,N/A,,Mostly Cloudy,190,2012-12-04 06:35:00
1:55 AM,57.2,51.8,82,30.04,10.0,SSW,10.4,16.1,N/A,,Scattered Clouds,200,2012-12-04 06:55:00
2:15 AM,57.2,51.8,82,30.04,10.0,SSW,11.5,17.3,N/A,,Scattered Clouds,200,2012-12-04 07:15:00
2:35 AM,57.2,51.8,82,30.04,10.0,SSW,9.2,19.6,N/A,,Scattered Clouds,200,2012-12-04 07:35:00
2:55 AM,57.2,51.8,82,30.04,10.0,SSW,12.7,18.4,N/A,,Overcast,200,2012-12-04 07:55:00
3:15 AM,57.2,51.8,82,30.04,10.0,South,10.4,-,N/A,,Overcast,190,2012-12-04 08:15:00
3:55 AM,57.2,50.0,77,30.03,10.0,SSW,12.7,18.4,N/A,,Overcast,200,2012-12-04 08:55:00
4:15 AM,55.4,50.0,82,30.02,10.0,SSW,10.4,-,N/A,,Mostly Cloudy,200,2012-12-04 09:15:00
4:35 AM,57.2,51.8,82,30.02,10.0,SSW,12.7,-,N/A,,Overcast,210,2012-12-04 09:35:00
4:55 AM,57.2,51.8,82,30.02,10.0,SSW,13.8,19.6,N/A,,Scattered Clouds,200,2012-12-04 09:55:00
5:15 AM,55.4,51.8,88,30.02,10.0,SSW,11.5,18.4,N/A,,Mostly Cloudy,200,2012-12-04 10:15:00
5:35 AM,57.2,51.8,82,30.02,10.0,SSW,12.7,17.3,N/A,,Overcast,200,2012-12-04 10:35:00
5:55 AM,57.2,51.8,82,30.02,10.0,SSW,12.7,-,N/A,,Overcast,200,2012-12-04 10:55:00
6:15 AM,57.2,51.8,82,30.02,10.0,SSW,11.5,16.1,N/A,,Overcast,200,2012-12-04 11:15:00
6:35 AM,55.4,51.8,88,30.02,10.0,SSW,11.5,-,N/A,,Scattered Clouds,200,2012-12-04 11:35:00
6:55 AM,55.4,51.8,88,30.02,10.0,SSW,10.4,-,N/A,,Scattered Clouds,200,2012-12-04 11:55:00
7:15 AM,55.4,51.8,88,30.02,10.0,SSW,10.4,16.1,N/A,,Clear,200,2012-12-04 12:15:00
7:35 AM,55.4,51.8,88,30.02,10.0,SSW,10.4,17.3,N/A,,Clear,200,2012-12-04 12:35:00
7:55 AM,55.4,51.8,88,30.03,10.0,SSW,10.4,16.1,N/A,,Scattered Clouds,200,2012-12-04 12:55:00
8:15 AM,55.4,51.8,88,30.02,10.0,SSW,10.4,-,N/A,,Overcast,200,2012-12-04 13:15:00
8:35 AM,55.4,51.8,88,30.03,10.0,SSW,11.5,17.3,N/A,,Overcast,200,2012-12-04 13:35:00
8:55 AM,57.2,51.8,82,30.03,10.0,SSW,10.4,18.4,N/A,,Overcast,200,2012-12-04 13:55:00
9:15 AM,57.2,51.8,82,30.03,10.0,SSW,9.2,18.4,N/A,,Overcast,200,2012-12-04 14:15:00
9:35 AM,57.2,51.8,82,30.03,10.0,SSW,6.9,-,N/A,,Overcast,200,2012-12-04 14:35:00
9:55 AM,59.0,53.6,82,30.03,10.0,SSW,9.2,-,N/A,,Overcast,200,2012-12-04 14:55:00
10:15 AM,59.0,53.6,82,30.03,10.0,SSW,11.5,17.3,N/A,,Overcast,200,2012-12-04 15:15:00
10:35 AM,59.0,53.6,82,30.03,10.0,SSW,10.4,17.3,N/A,,Overcast,200,2012-12-04 15:35:00
10:55 AM,60.8,53.6,77,30.02,10.0,SSW,10.4,-,N/A,,Overcast,210,2012-12-04 15:55:00
11:15 AM,60.8,55.4,82,30.02,10.0,SW,11.5,-,N/A,,Overcast,220,2012-12-04 16:15:00
11:35 AM,60.8,55.4,82,30.02,7.0,SW,13.8,17.3,N/A,Rain,Rain,230,2012-12-04 16:35:00
11:55 AM,59.0,55.4,88,30.01,10.0,SW,13.8,-,N/A,,Overcast,230,2012-12-04 16:55:00
12:15 PM,59.0,55.4,88,30.01,5.0,WSW,11.5,-,0.03,Rain,Rain,250,2012-12-04 17:15:00
12:35 PM,57.2,55.4,94,30.02,3.0,West,11.5,-,0.07,,Heavy Drizzle,260,2012-12-04 17:35:00
12:55 PM,53.6,51.8,94,30.02,2.5,NNW,12.7,-,0.11,,Drizzle,340,2012-12-04 17:55:00
1:15 PM,51.8,51.8,100,30.02,5.0,North,9.2,-,0.01,Rain,Light Rain,350,2012-12-04 18:15:00
1:35 PM,50.0,50.0,100,30.02,5.0,North,11.5,-,0.03,Rain,Rain,350,2012-12-04 18:35:00
1:55 PM,50.0,50.0,100,30.03,5.0,North,15.0,-,0.03,Rain,Light Rain,350,2012-12-04 18:55:00
2:15 PM,46.4,46.4,100,30.04,3.0,NNW,16.1,-,0.03,Rain,Heavy Rain,340,2012-12-04 19:15:00
2:35 PM,44.6,44.6,100,30.04,5.0,North,17.3,21.9,0.07,Rain,Rain,360,2012-12-04 19:35:00
2:55 PM,44.6,42.8,93,30.05,5.0,North,10.4,-,0.09,Rain,Rain,350,2012-12-04 19:55:00
3:15 PM,44.6,42.8,93,30.07,7.0,NNW,11.5,18.4,0.02,Rain,Light Rain,330,2012-12-04 20:15:00
3:35 PM,44.6,41.0,87,30.07,7.0,NNW,9.2,-,0.02,Rain,Light Rain,340,2012-12-04 20:35:00
3:55 PM,44.6,42.8,93,30.07,7.0,NNW,5.8,-,0.05,Rain,Light Rain,340,2012-12-04 20:55:00
4:15 PM,44.6,41.0,87,30.08,10.0,NW,3.5,-,N/A,Rain,Rain,320,2012-12-04 21:15:00
4:35 PM,44.6,41.0,87,30.08,10.0,North,5.8,-,N/A,Rain,Light Rain,360,2012-12-04 21:35:00
4:55 PM,44.6,41.0,87,30.09,10.0,NNW,4.6,-,N/A,Rain,Light Rain,330,2012-12-04 21:55:00
5:15 PM,44.6,41.0,87,30.10,10.0,NW,3.5,-,N/A,,Overcast,310,2012-12-04 22:15:00
5:35 PM,44.6,42.8,93,30.11,10.0,NW,4.6,-,N/A,,Overcast,310,2012-12-04 22:35:00
5:55 PM,44.6,42.8,93,30.12,10.0,WNW,5.8,-,N/A,,Overcast,300,2012-12-04 22:55:00
6:15 PM,44.6,42.8,93,30.12,10.0,NW,5.8,-,N/A,,Overcast,310,2012-12-04 23:15:00
6:35 PM,44.6,42.8,93,30.14,10.0,WNW,5.8,-,N/A,,Overcast,300,2012-12-04 23:35:00
6:55 PM,44.6,42.8,93,30.14,10.0,WNW,5.8,-,N/A,,Overcast,300,2012-12-04 23:55:00
7:15 PM,44.6,42.8,93,30.15,10.0,West,5.8,-,N/A,,Overcast,280,2012-12-05 00:15:00
7:35 PM,42.8,42.8,100,30.15,10.0,West,5.8,-,N/A,,Scattered Clouds,280,2012-12-05 00:35:00
7:55 PM,42.8,41.0,93,30.16,7.0,West,4.6,-,N/A,,Clear,270,2012-12-05 00:55:00
8:15 PM,41.0,41.0,100,30.15,7.0,West,4.6,-,N/A,,Clear,280,2012-12-05 01:15:00
8:35 PM,41.0,41.0,100,30.16,7.0,West,5.8,-,N/A,,Clear,270,2012-12-05 01:35:00
8:55 PM,41.0,41.0,100,30.16,5.0,West,5.8,-,N/A,,Clear,270,2012-12-05 01:55:00
9:15 PM,41.0,41.0,100,30.16,10.0,West,4.6,-,N/A,,Clear,270,2012-12-05 02:15:00
9:35 PM,41.0,41.0,100,30.17,7.0,WSW,4.6,-,N/A,,Clear,250,2012-12-05 02:35:00
9:55 PM,41.0,39.2,93,30.17,7.0,West,5.8,-,N/A,,Clear,260,2012-12-05 02:55:00
10:15 PM,41.0,41.0,100,30.17,7.0,West,5.8,-,N/A,,Clear,270,2012-12-05 03:15:00
10:35 PM,41.0,41.0,100,30.17,10.0,West,6.9,-,N/A,,Clear,280,2012-12-05 03:35:00
10:55 PM,41.0,41.0,100,30.18,10.0,WNW,8.1,-,N/A,,Clear,290,2012-12-05 03:55:00
11:15 PM,41.0,39.2,93,30.17,10.0,West,6.9,-,N/A,,Clear,280,2012-12-05 04:15:00
11:35 PM,42.8,39.2,87,30.18,10.0,West,8.1,-,N/A,,Clear,280,2012-12-05 04:35:00
11:55 PM,42.8,37.4,81,30.18,10.0,West,9.2,-,N/A,,Clear,280,2012-12-05 04:55:00